Regional Weather Roundup
Issued by NWS Jackson, KY

Home | Current Version | Previous Version | Graphics & Text | Print | Product List | Glossary On
Versions: 1 2 3 4 5 6 7 8 9 10 11 12 13 14 15 16 17 18 19 20 21 22 23 24 25 26 27 28 29 30 31 32 33 34 35 36 37 38 39 40 41 42 43 44 45 46 47 48 49 50
000
ASUS43 KJKL 290005
RWRJKL

EAST KENTUCKY HOURLY WEATHER ROUNDUP
NATIONAL WEATHER SERVICE JACKSON KY
800 PM EDT THU AUG 28 2014

NOTE: "FAIR" INDICATES FEW OR NO CLOUDS BELOW 12,000 FEET WITH
NO SIGNIFICANT WEATHER AND/OR OBSTRUCTIONS TO VISIBILITY.

* THESE REPORTS ARE NOT UNDER NWS QUALITY CONTROL AND MAY NOT
  REPORT WEATHER SUCH AS PRECIPITATION AND FOG.

KYZ079-080-083-085-087-088-110-112-115-119-120-290100
...EASTERN KENTUCKY...

CITY           SKY/WX    TMP DP  RH WIND       PRES   REMARKS
JACKSON        CLEAR     76  67  73 CALM      30.06S
6HR MIN TEMP:  76; 6HR MAX TEMP:  84;

LONDON         CLEAR     81  69  67 NE5       30.05R
6HR MIN TEMP:  81; 6HR MAX TEMP:  89;

SOMERSET*      CLEAR     81  70  69 E6        30.04R
MONTICELLO*    CLEAR     80  76  87 CALM      30.04R
6HR MIN TEMP:  81; 6HR MAX TEMP:  92;

WILLIAMSBURG*  CLEAR     81  72  74 NE6       30.04R
MIDDLESBORO*   CLEAR     80  73  77 W5        30.03R
6HR MIN TEMP:  80; 6HR MAX TEMP:  91;

HARLAN APT*    CLEAR     79  66  65 MISG      30.05R
BLACK MTN*       N/A     68  66  94 N3          N/A
PIKEVILLE APT* CLEAR     75  66  73 NE3       30.07S
BIG SANDY*     CLEAR     75  68  79 NE5       30.06R
6HR MIN TEMP:  75; 6HR MAX TEMP:  83;

MOREHEAD APT*  CLEAR     79  64  61 E5        30.07R
$$

KYZ035-036-041-042-044-050-067-078-099-290100
...CENTRAL KENTUCKY...

CITY           SKY/WX    TMP DP  RH WIND       PRES   REMARKS
MT STERLING*   CLEAR     81  68  65 E3        30.06R
FLEMING/MASON* CLEAR     77  65  65 E5        30.06R
DANVILLE*      CLEAR     79  70  73 CALM      30.05R
RICHMOND*      CLEAR     79  68  69 E5        30.04R
LEXINGTON      CLEAR     83  67  58 E7        30.05R
6HR MIN TEMP:  83; 6HR MAX TEMP:  87;

FRANKFORT      CLEAR     81  69  67 E5        30.02S
6HR MIN TEMP:  81; 6HR MAX TEMP:  86;

$$

KYZ091>093-OHZ055-061-077-WVZ005-015-034-035-042-290100
...SOUTHERN OHIO/WEST VIRGINIA...

CITY           SKY/WX    TMP DP  RH WIND       PRES   REMARKS
COVINGTON      PTCLDY    80  62  54 E7        30.05R
COLUMBUS       MOCLDY    75  58  55 E5        30.08R
DAYTON         PTCLDY    75  62  64 E8        30.09R
WILMINGTON     CLEAR     71  62  73 NE5       30.08R
HUNTINGTON     CLEAR     76  61  59 E5        30.04S
CHARLESTON     CLEAR     76  63  64 CALM      30.05S
PINEVILLE*     CLEAR     73  71  96 MISG      30.13R
BECKLEY        CLEAR     73  60  63 NE7       30.12S
BLUEFIELD      CLEAR     74  64  71 CALM      30.14S
$$

VAZ002-007-008-TNZ017-027-036-066-071-290100
...SOUTHWEST VIRGINIA/EAST TENNESSEE...

CITY           SKY/WX    TMP DP  RH WIND       PRES   REMARKS
WISE*          CLEAR     73  63  68 NE5       30.14R
JONESVILLE*      N/A     81  72  74 CALM      30.06R
ABINGDON*      CLEAR     81  67  63 NE3       30.08S
BRISTOL        PTCLDY    80  68  66 N3        30.04S
KNOXVILLE      PTCLDY    84  69  60 E3        30.00R
OAK RIDGE      PTCLDY    84  69  60 CALM      30.02R
CROSSVILLE     MOCLDY    75  69  81 N6        30.09R
NASHVILLE      MOCLDY    85  70  60 NW8       29.98R
$$

...KEY TO REMARKS...
VSB - VISIBILITY IN MILES
WCI - WIND CHILL INDEX
HX  - HEAT INDEX

$$



USA.gov is the U.S. government's official web portal to all federal, state and local government web resources and services.